HDGA4: War Eagle Creek At Hindsville, AR

                                SHEF ID:       HDGA4     War Eagle Crk nr Hindsville,AR
STATION TYPE:

STAGE RIV-FLOW WTR-TEMP CONDUCT BAT-LOAD
ft cfs F umho/cm volt
Ccp-Rev Ccp-Rev Ccp-Rev Ccp-Rev Ccp-Rev
(America/Chicago)
05/02 00:00 2.38 382 62.60 ---- 12.76
05/02 01:00 2.37 379 62.31 ---- 12.73
05/02 02:00 2.36 376 62.01 ---- 12.70
05/02 03:00 2.35 373 61.68 ---- 12.67
05/02 04:00 2.33 368 61.39 ---- 12.63
05/02 05:00 2.32 365 61.02 ---- 12.60
05/02 06:00 2.30 359 ---- ---- ----
05/02 07:00 2.29 357 60.39 ---- 12.56
05/02 08:00 2.27 351 60.19 ---- 12.63
05/02 09:00 2.26 348 60.44 ---- 12.84
05/02 10:00 2.25 346 60.91 ---- 13.09
05/02 11:00 2.23 340 61.18 ---- 13.42
05/02 12:00 2.22 337 61.72 ---- 13.54
05/02 13:00 2.20 332 62.29 ---- 13.57
05/02 14:00 2.19 329 62.85 ---- 13.95
05/02 15:00 2.18 327 63.59 ---- 13.87
05/02 16:00 2.16 322 63.91 ---- 13.85
05/02 17:00 2.16 322 64.44 ---- 13.39
05/02 18:00 2.14 316 64.94 ---- 13.11
05/02 19:00 2.13 314 64.96 ---- 12.89
05/02 20:00 2.12 311 64.83 ---- 12.83
05/02 21:00 2.11 309 64.53 ---- 12.82
05/02 22:00 2.10 306 64.11 ---- 12.79
05/02 23:00 2.09 303 63.57 ---- 12.77
Data processed at Sun 03May2026 04:13 GMT

NOTICE: If you are parsing this page

Please convert to using our Data API. Starting early 2026 we will be migrating to: https://water.usace.army.mil with modern pages rendered in JavaScript. When this migration completes you will no longer be able to scrape this page! CWMSDataAPI (CDA)

Timeseries IDs (TSIDs)

TSIDs used from left to right in the data table
HIND.Stage.Inst.1Hour.0.Ccp-Rev
HIND.Flow.Inst.1Hour.0.Ccp-Rev
HIND.Temp-Water.Inst.1Hour.0.Ccp-Rev
HIND.Cond.Inst.1Hour.0.Ccp-Rev
HIND.Volt-Battery Load.Inst.1Hour.0.Ccp-Rev

                            

All information presented herein is the property of the government of the United States of America and may be revised or deleted at any time without prior notice. Dissemination of this information without the expressed written consent of the Public Affairs Office, Tulsa District U.S. Army Corps of Engineers is strictly prohibited. These data are gathered electronically and, as presented, have NOT undergone any form of quality control. These data are NOT guaranteed to be valid or correct.